Madisonville, KY

5:07 AM CST on December 09, 2019 (GMT -0600)
Madisonville

Weather History for K2I0 - October, 2019

Change the Weather History Date:

Wednesday, October 9, 2019

  Actual Average (KOWB) Record (KOWB)
Temperature  
Mean Temperature 62 °F -  
Max Temperature 78 °F 74 °F 89 °F (1939)
Min Temperature 46 °F 49 °F 33 °F (1945)
Degree Days  
Heating Degree Days 3    
Growing Degree Days 12 (Base 50)    
Moisture  
Dew Point 48 °F    
Average Humidity 70    
Maximum Humidity 100    
Minimum Humidity 28    
Precipitation  
Precipitation 0.00 in - - ()
Sea Level Pressure  
Sea Level Pressure 30.09 in    
Wind  
Wind Speed 1 mph ()    
Max Wind Speed 9 mph    
Max Gust Speed -    
Visibility 9.9 miles    
Events      
Averages and records for this station are not official NWS values.
T = Trace of Precipitation, MM = Missing Value Source: Averaged Metar Reports

Daily Weather History Graph

Daily Weather History Graph

Search for Another Location

Airport or City:

Astronomy

Oct. 09, 2019 Rise Set
Actual Time 6:51 AM CDT 6:21 PM CDT
Civil Twilight 6:25 AM CDT 6:47 PM CDT
Nautical Twilight 5:55 AM CDT 7:17 PM CDT
Astronomical Twilight 5:25 AM CDT 7:47 PM CDT
Moon 4:46 PM CDT 2:45 AM CDT
Length of Visible Light 12h 21m
Length of Day
11h 29m
Waxing Gibbous, 85% of the Moon is Illuminated
Oct 9
Waxing Gibbous
Oct 13
Full
Oct 21
Last Quarter
Oct 27
New
Nov 4
First Quarter

Hourly Weather History & Observations

Time (CDT) Temp. Dew Point Humidity Pressure Visibility Wind Dir Wind Speed Gust Speed Precip Events Conditions
12:15 AM 50.9 °F 46.4 °F 85% 30.10 in 10.0 mi Calm Calm - N/A   Clear
12:35 AM 49.6 °F 45.9 °F 87% 30.10 in 10.0 mi Calm Calm - N/A   Clear
12:55 AM 49.3 °F 46.4 °F 90% 30.10 in 10.0 mi Calm Calm - N/A   Clear
1:15 AM 49.1 °F 46.8 °F 92% 30.10 in 10.0 mi Calm Calm - N/A   Clear
1:35 AM 49.1 °F 46.8 °F 92% 30.10 in 10.0 mi Calm Calm - N/A   Clear
1:55 AM 48.7 °F 46.6 °F 92% 30.10 in 10.0 mi Calm Calm - N/A   Clear
2:15 AM 48.9 °F 46.6 °F 92% 30.10 in 10.0 mi Calm Calm - N/A   Clear
2:35 AM 49.1 °F 46.4 °F 90% 30.10 in 10.0 mi Calm Calm - N/A   Clear
2:55 AM 48.2 °F 45.7 °F 91% 30.10 in 4.0 mi Calm Calm - N/A   Clear
3:15 AM 48.2 °F 46.4 °F 93% 30.09 in 10.0 mi Calm Calm - N/A   Clear
3:35 AM 47.7 °F 46.2 °F 95% 30.09 in 10.0 mi Calm Calm - N/A   Clear
3:55 AM 47.5 °F 46.2 °F 95% 30.10 in 10.0 mi Calm Calm - N/A   Clear
4:15 AM 46.8 °F 45.1 °F 94% 30.10 in 10.0 mi Calm Calm - N/A   Clear
4:35 AM 47.3 °F 47.3 °F 100% 30.11 in 10.0 mi Calm Calm - N/A   Clear
4:55 AM 46.6 °F 46.2 °F 99% 30.11 in 10.0 mi Calm Calm - N/A   Clear
5:15 AM 46.8 °F 46.8 °F 100% 30.11 in 10.0 mi Calm Calm - N/A   Clear
5:35 AM 46.9 °F 45.9 °F 96% 30.11 in 10.0 mi Calm Calm - N/A   Clear
5:55 AM 46.4 °F 45.0 °F 95% 30.12 in 10.0 mi Calm Calm - N/A   Clear
6:15 AM 46.6 °F 46.6 °F 100% 30.13 in 7.0 mi Calm Calm - N/A   Clear
6:35 AM 46.0 °F 46.0 °F 100% 30.13 in 10.0 mi Calm Calm - N/A   Clear
6:55 AM 46.4 °F 46.4 °F 100% 30.14 in 10.0 mi Calm Calm - N/A   Clear
7:15 AM 46.4 °F 46.4 °F 100% 30.14 in 10.0 mi Calm Calm - N/A   Clear
7:35 AM 48.0 °F 48.0 °F 100% 30.14 in 10.0 mi Calm Calm - N/A   Clear
7:55 AM 49.6 °F 47.5 °F 92% 30.14 in 10.0 mi Calm Calm - N/A   Clear
8:15 AM 52.3 °F 49.5 °F 90% 30.15 in 10.0 mi Calm Calm - N/A   Clear
8:30 AM 54.7 °F 49.6 °F 83% 30.16 in 10.0 mi Calm Calm - N/A   Clear
8:55 AM 57.7 °F 50.4 °F 76% 30.16 in 10.0 mi Calm Calm - N/A   Clear
9:15 AM 60.3 °F 51.8 °F 74% 30.16 in 10.0 mi East 4.6 mph - N/A   Clear
9:35 AM 62.4 °F 53.1 °F 71% 30.16 in 10.0 mi ESE 3.5 mph - N/A   Clear
9:55 AM 64.4 °F 54.5 °F 70% 30.16 in 10.0 mi Calm Calm - N/A   Clear
10:15 AM 66.9 °F 55.6 °F 67% 30.15 in 10.0 mi Calm Calm - N/A   Clear
10:35 AM 68.9 °F 56.3 °F 64% 30.15 in 10.0 mi Calm Calm - N/A   Clear
10:55 AM - - N/A% - - North - - N/A   Unknown
11:15 AM - - N/A% - - North - - N/A   Unknown
11:55 AM 73.2 °F 49.1 °F 42% 30.14 in 10.0 mi Calm Calm - N/A   Unknown
12:10 PM 73.6 °F 48.6 °F 41% 30.14 in 10.0 mi South 4.6 mph - N/A   Clear
1:35 PM 76.1 °F 46.6 °F 35% 30.09 in 10.0 mi Calm Calm - N/A   Clear
1:55 PM 77.2 °F 45.7 °F 33% 30.08 in 10.0 mi South 4.6 mph - N/A   Clear
2:15 PM 77.4 °F 46.9 °F 34% 30.08 in 10.0 mi SSE 5.8 mph - N/A   Clear
2:35 PM 77.7 °F 45.9 °F 32% 30.06 in 10.0 mi ESE 8.1 mph - N/A   Clear
2:55 PM 77.9 °F 45.1 °F 31% 30.06 in 10.0 mi ESE 3.5 mph - N/A   Clear
3:35 PM 78.6 °F 44.6 °F 30% 30.04 in 10.0 mi ESE 3.5 mph - N/A   Clear
3:55 PM 78.4 °F 43.5 °F 29% 30.04 in 10.0 mi SSE 4.6 mph - N/A   Clear
4:15 PM 78.4 °F 43.0 °F 28% 30.04 in 10.0 mi SE 8.1 mph - N/A   Clear
4:35 PM 78.4 °F 42.8 °F 28% 30.03 in 10.0 mi ESE 9.2 mph - N/A   Clear
4:55 PM 76.8 °F 43.0 °F 30% 30.03 in 10.0 mi East 5.8 mph - N/A   Clear
5:15 PM 77.2 °F 43.9 °F 31% 30.03 in 10.0 mi ESE 6.9 mph - N/A   Clear
5:35 PM 76.1 °F 44.6 °F 33% 30.04 in 10.0 mi ESE 6.9 mph - N/A   Clear
5:55 PM 74.3 °F 46.2 °F 37% 30.04 in 10.0 mi ESE 4.6 mph - N/A   Clear
6:15 PM 71.6 °F 47.1 °F 42% 30.05 in 10.0 mi ESE 4.6 mph - N/A   Clear
6:35 PM 69.6 °F 47.7 °F 45% 30.05 in 10.0 mi ESE 3.5 mph - N/A   Clear
6:55 PM 66.9 °F 47.7 °F 50% 30.05 in 10.0 mi ESE 4.6 mph - N/A   Clear
7:15 PM 65.3 °F 48.6 °F 55% 30.05 in 10.0 mi East 4.6 mph - N/A   Clear
7:35 PM 65.3 °F 49.3 °F 56% 30.06 in 10.0 mi ESE 3.5 mph - N/A   Clear
7:55 PM 63.5 °F 50.2 °F 62% 30.06 in 10.0 mi East 6.9 mph - N/A   Clear
8:15 PM 64.0 °F 52.0 °F 65% 30.07 in 10.0 mi East 6.9 mph - N/A   Clear
8:35 PM 62.8 °F 52.7 °F 70% 30.07 in 10.0 mi East 5.8 mph - N/A   Clear
8:55 PM 62.8 °F 53.4 °F 71% 30.07 in 10.0 mi East 4.6 mph - N/A   Clear
9:15 PM 62.2 °F 53.6 °F 73% 30.07 in 10.0 mi East 4.6 mph - N/A   Clear
9:35 PM 61.7 °F 53.6 °F 75% 30.07 in 10.0 mi ESE 4.6 mph - N/A   Clear
9:55 PM 61.7 °F 53.6 °F 75% 30.08 in 10.0 mi East 4.6 mph - N/A   Clear
10:15 PM 61.2 °F 53.8 °F 77% 30.08 in 10.0 mi East 3.5 mph - N/A   Clear
10:35 PM 60.4 °F 53.6 °F 78% 30.09 in 10.0 mi East 3.5 mph - N/A   Clear
10:55 PM 59.9 °F 53.6 °F 80% 30.08 in 10.0 mi East 3.5 mph - N/A   Clear
11:15 PM 59.5 °F 53.6 °F 81% 30.08 in 10.0 mi East 3.5 mph - N/A   Clear
11:35 PM 59.2 °F 53.6 °F 82% 30.07 in 10.0 mi Calm Calm - N/A   Clear
11:55 PM 58.5 °F 53.2 °F 83% 30.07 in 10.0 mi Calm Calm - N/A   Clear